Miscellaneous Local Product
Issued by NWS Hastings, NE

Home | Current Version | Previous Version | Text Only | Print | Product List | Glossary On
Versions: 1 2 3 4 5 6 7 8 9 10 11 12 13 14 15 16 17 18 19 20 21 22 23 24 25 26 27 28 29 30 31 32 33 34 35 36 37 38 39 40 41 42 43 44 45 46 47 48 49 50
115
AXUS43 KGID 251502
MISGRI

GID CWA HOURLY WEATHER ROUNDUP
NATIONAL WEATHER SERVICE HASTINGS NE
1000 AM CDT MON JUL 25 2016

NOTE: "FAIR" INDICATES FEW OR NO CLOUDS BELOW 12,000 FEET WITH NO
SIGNIFICANT WEATHER AND/OR OBSTRUCTIONS TO VISIBILITY.

...SOUTH CENTRAL NEBRASKA...

CITY           SKY/WX    TMP DP  RH WIND       PRES   REMARKS
GRAND ISLAND   CLOUDY    73  61  65 SE7       30.18F
HASTINGS       PTSUNNY   73  63  70 SE8       30.18S
KEARNEY        MOSUNNY   73  64  73 SE9       30.19S
ORD            MOSUNNY   74  56  53 S12       30.18R
YORK           CLOUDY    73  64  73 S8        30.18S
AURORA         CLOUDY    73  64  74 SE8       30.18S
LEXINGTON      SUNNY     74  62  67 E15       30.18F
HOLDREGE       CLOUDY    73  64  72 E12       30.18S
HEBRON         PTSUNNY   73  65  77 E3        30.15F

...NEBRASKA PANHANDLE...

CITY           SKY/WX    TMP DP  RH WIND       PRES   REMARKS
CHADRON        SUNNY     77  54  44 S17       30.13S
ALLIANCE       SUNNY     72  61  68 SE13      30.19R
SCOTTSBLUFF    SUNNY     72  57  59 SE12      30.17F
SIDNEY         SUNNY     73  56  54 S15       30.22R

...WESTERN AND NORTH CENTRAL NEBRASKA...

CITY           SKY/WX    TMP DP  RH WIND       PRES   REMARKS
VALENTINE      SUNNY     79  57  46 S15       30.16S
AINSWORTH      SUNNY     78  50  38 S12G17    30.17S
ONEILL         SUNNY     79  56  44 S9        30.18R
BROKEN BOW     SUNNY     72  59  63 SE13      30.19S
IMPERIAL       SUNNY     71  61  70 SE8       30.19F
NORTH PLATTE   SUNNY     73  64  73 SE9       30.19S
MCCOOK         SUNNY     76  62  62 E9        30.18R

...EASTERN NEBRASKA...

CITY           SKY/WX    TMP DP  RH WIND       PRES   REMARKS
NORFOLK        MOSUNNY   77  61  57 SE7       30.16R
SO SIOUX CITY  SUNNY     79  63  57 CALM      30.13S
TEKAMAH        CLOUDY    77  64  64 CALM      30.13R
COLUMBUS       CLOUDY    72  59  64 CALM      30.17S
ALBION         CLOUDY    72  61  67 S7        30.19R
OMAHA EPPLEY   CLOUDY    77  66  68 S3        30.13R
MILLARD        CLOUDY    79  66  64 S7        30.14R
LINCOLN        PTSUNNY   76  64  66 SE5       30.16R
NEBRASKA CITY  CLOUDY    73  67  81 CALM      30.14S
BEATRICE       PTSUNNY   72  65  79 E5        30.15S
FALLS CITY     CLOUDY    73  67  81 E3        30.11R

...NORTHERN KANSAS...

CITY           SKY/WX    TMP DP  RH WIND       PRES   REMARKS
GOODLAND       SUNNY     72  61  68 E5        30.20R
HILL CITY      PTSUNNY   72  66  81 E10       30.18R
NORTON         SUNNY     75  57  53 E13G18    30.17R
SMITH CENTER   MOSUNNY   70  66  88 NE10      30.14F
BELOIT         CLOUDY    68  66  94 N13       30.11F
HAYS           CLOUDY    70  61  73 CALM      30.16R
RUSSELL        CLOUDY    70  69  97 E14       30.12R
CONCORDIA      CLOUDY    70  67  90 NE6       30.13F
SALINA         CLOUDY    72  69  90 NE8       30.07F
TOPEKA         CLOUDY    73  70  90 SW3       30.11R



USA.gov is the U.S. government's official web portal to all federal, state and local government web resources and services.